GW5974 Weather Reports


time (UTC)temp
C
wind
direction
speed
KPH
gust
KPH
rain 1hr
cm
rain 24hr
cm
rain mn
cm
humidity
%
barometer
mb
20260506135552 10 149 0.0 1.6 0.00 0.61 0.61 86 1011.6
20260506135048 10 170 0.0 4.8 0.00 0.61 0.61 86 1011.6
20260506134545 10 155 0.0 4.8 0.00 0.61 0.61 86 1011.7
20260506134040 9 163 0.0 6.4 0.00 0.61 0.61 87 1011.9
20260506133538 9 306 3.2 6.4 0.00 0.61 0.61 87 1011.9
20260506133035 9 176 0.0 6.4 0.00 0.61 0.61 89 1011.7
20260506132532 9 258 3.2 6.4 0.00 0.61 0.61 89 1011.5
20260506132029 8 150 0.0 1.6 0.00 0.61 0.61 91 1011.5
20260506131526 8 298 1.6 1.6 0.00 0.61 0.61 91 1011.4
20260506131023 8 181 0.0 1.6 0.00 0.61 0.61 92 1011.3
20260506130519 8 172 0.0 4.8 0.00 0.61 0.61 93 1011.2
20260506130017 8 121 1.6 4.8 0.00 0.61 0.61 94 1011.3
20260506125515 8 208 1.6 4.8 0.00 0.61 0.61 95 1011.0
20260506125013 8 163 0.0 0.0 0.00 0.61 0.61 95 1010.9
20260506124510 8 151 0.0 0.0 0.00 0.61 0.61 95 1010.8
20260506124008 8 161 0.0 1.6 0.00 0.61 0.61 96 1010.9
20260506123506 8 228 3.2 4.8 0.00 0.61 0.61 96 1010.9
20260506123004 8 180 0.0 0.0 0.00 0.61 0.61 96 1010.6
20260506122500 8 180 0.0 1.6 0.00 0.61 0.61 96 1010.9
20260506121958 8 177 0.0 1.6 0.00 0.61 0.61 96 1010.7
20260506121455 8 176 0.0 0.0 0.00 0.61 0.61 96 1010.7
20260506120952 8 175 0.0 0.0 0.00 0.61 0.61 96 1010.8
20260506120449 8 175 0.0 0.0 0.00 0.61 0.61 96 1010.6
20260506115946 7 176 0.0 1.6 0.00 0.61 0.61 96 1010.8
20260506115444 7 179 0.0 1.6 0.00 0.61 0.61 96 1010.7
20260506114943 7 171 0.0 0.0 0.00 0.61 0.61 96 1010.7
20260506114440 7 171 0.0 0.0 0.00 0.61 0.61 96 1010.7
20260506113938 7 171 0.0 1.6 0.00 0.61 0.61 96 1010.6
20260506113436 7 168 0.0 1.6 0.00 0.61 0.61 96 1010.5
20260506112932 7 168 0.0 0.0 0.00 0.61 0.61 96 1010.4
20260506112430 7 164 0.0 0.0 0.00 0.61 0.61 96 1010.0
20260506111927 7 164 0.0 0.0 0.00 0.61 0.61 96 1010.0
20260506111425 7 164 0.0 0.0 0.00 0.61 0.61 96 1009.9
20260506110922 7 164 0.0 0.0 0.00 0.61 0.61 96 1009.9
20260506110420 7 164 0.0 0.0 0.00 0.61 0.61 96 1009.9
20260506105916 7 164 0.0 0.0 0.00 0.61 0.61 96 1009.8
20260506105412 7 165 0.0 0.0 0.00 0.61 0.61 96 1009.5
20260506104909 7 157 0.0 0.0 0.00 0.61 0.61 96 1009.2
20260506104408 7 177 0.0 1.6 0.00 0.61 0.61 96 1009.6
20260506103905 7 133 0.0 0.0 0.00 0.61 0.61 96 1009.4
20260506103402 7 133 0.0 0.0 0.00 0.61 0.61 96 1009.1
20260506102859 7 132 1.6 1.6 0.00 0.61 0.61 96 1009.4
20260506102357 7 156 0.0 1.6 0.00 0.61 0.61 96 1009.9
20260506101854 7 171 1.6 1.6 0.00 0.61 0.61 96 1010.0
20260506101350 7 152 0.0 1.6 0.00 0.61 0.61 96 1009.6
20260506100848 7 237 3.2 4.8 0.00 0.61 0.61 96 1009.7
20260506100346 7 178 0.0 1.6 0.00 0.61 0.61 96 1009.6
20260506095844 7 138 0.0 0.0 0.00 0.61 0.61 96 1009.1
20260506095341 7 138 0.0 0.0 0.00 0.61 0.61 96 1009.1
20260506094838 7 138 0.0 0.0 0.00 0.61 0.61 96 1009.2
20260506094337 7 138 0.0 0.0 0.00 0.61 0.61 96 1009.0
20260506093835 7 138 0.0 0.0 0.00 0.61 0.61 96 1009.0
20260506093332 7 138 0.0 0.0 0.18 0.61 0.61 96 1009.1
20260506092829 7 138 0.0 0.0 0.18 0.61 0.61 96 1009.4
20260506092327 7 138 0.0 0.0 0.00 0.58 0.58 96 1009.5
20260506091824 7 138 0.0 0.0 0.00 0.58 0.58 96 1009.8
20260506091321 7 138 0.0 0.0 0.00 0.58 0.58 96 1009.9
20260506090819 7 166 3.2 4.8 0.00 0.58 0.58 96 1010.0
20260506090316 7 263 1.6 1.6 0.00 0.58 0.58 96 1010.0
20260506085812 7 143 0.0 1.6 0.00 0.58 0.58 96 1009.7
20260506085308 7 128 0.0 1.6 0.00 0.58 0.58 96 1009.8
20260506084806 7 138 0.0 1.6 0.13 0.58 0.58 96 1009.6
20260506084302 7 151 0.0 1.6 0.13 0.58 0.58 96 1009.5
20260506083759 7 161 0.0 0.0 0.00 0.56 0.56 96 1009.4
20260506083257 7 279 0.0 1.6 0.00 0.56 0.56 96 1009.4
20260506082754 7 284 1.6 1.6 0.00 0.56 0.56 96 1009.4
20260506082249 7 284 0.0 0.0 0.18 0.56 0.56 96 1009.3
20260506081747 7 284 0.0 0.0 0.30 0.56 0.56 96 1009.4
20260506081244 7 284 0.0 0.0 0.30 0.53 0.53 96 1009.5
20260506080742 7 284 1.6 6.4 0.30 0.51 0.51 96 1009.6
20260506080238 7 211 1.6 1.6 0.30 0.48 0.48 96 1009.6
20260506073222 8 147 0.0 6.4 0.00 0.36 0.36 96 1009.7
20260506072719 8 184 0.0 4.8 0.13 0.36 0.36 96 1009.6
20260506072217 8 170 0.0 1.6 0.30 0.36 0.36 96 1009.8
20260506071714 8 221 1.6 1.6 0.30 0.33 0.33 96 1009.5
20260506071212 8 134 1.6 4.8 0.30 0.30 0.30 96 1009.5
20260506070709 8 143 0.0 0.0 0.18 0.28 0.28 96 1009.5
20260506070206 8 179 0.0 0.0 0.13 0.25 0.25 96 1009.5
20260506062142 8 135 0.0 0.0 0.00 0.18 0.18 96 1009.3
20260506061638 8 135 0.0 0.0 0.18 0.18 0.18 96 1009.4
20260506061136 8 137 0.0 0.0 0.18 0.18 0.18 96 1009.7
20260506060635 8 137 0.0 1.6 0.00 0.15 0.15 96 1009.6
20260506060131 8 137 0.0 0.0 0.00 0.15 0.15 96 1009.7
20260506051103 7 137 0.0 0.0 0.18 0.10 0.10 96 1009.7
20260506050601 7 137 0.0 0.0 0.00 0.08 0.08 96 1009.5
20260506045052 7 136 0.0 0.0 0.00 0.05 0.05 96 1009.8
20260506044550 7 136 0.0 0.0 0.18 0.05 0.05 96 1009.8
20260506044046 7 344 0.0 0.0 0.18 0.05 0.05 96 1009.9
20260506043543 7 344 0.0 0.0 0.00 0.03 0.03 96 1010.1
20260506043041 7 344 0.0 0.0 0.00 0.03 0.03 96 1010.0
20260506042540 7 344 0.0 0.0 0.13 0.03 0.03 96 1010.1
20260506042038 7 344 0.0 0.0 0.13 0.03 0.03 96 1010.3
20260506041536 7 344 0.0 0.0 0.00 0.00 0.00 96 1010.1
20260506041033 7 344 0.0 0.0 0.00 0.00 0.00 96 1010.2
20260506040531 7 344 0.0 0.0 0.18 0.00 0.00 96 1010.3
20260506040026 7 344 0.0 0.0 0.18 3.05 3.05 96 1010.2
20260506035524 7 344 0.0 0.0 0.00 3.02 3.02 96 1010.3
20260506035020 7 210 0.0 4.8 0.13 3.02 3.02 96 1010.4
20260506034518 8 129 0.0 1.6 0.13 3.02 3.02 96 1010.5
20260506034014 9 119 1.6 6.4 0.18 3.00 3.00 96 1010.7
20260506033512 9 144 0.0 0.0 0.30 3.00 3.00 97 1010.7
20260506033009 9 142 0.0 0.0 0.13 2.97 2.97 96 1010.8
20260506032506 9 166 0.0 0.0 0.18 2.95 2.95 96 1010.6
20260506032002 9 166 0.0 0.0 0.13 2.92 2.92 96 1010.6
20260506031500 9 166 0.0 0.0 0.18 2.90 2.90 96 1010.8
20260506030957 9 166 0.0 0.0 0.36 2.90 2.90 96 1010.6
20260506030455 9 166 0.0 1.6 0.48 2.87 2.87 96 1010.6
20260506025952 9 152 0.0 0.0 0.30 2.82 2.82 96 1010.6
20260506025449 9 151 0.0 0.0 0.30 2.79 2.79 96 1010.7
20260506024945 9 156 0.0 0.0 0.48 2.77 2.77 96 1010.8
20260506024442 9 147 0.0 1.6 0.48 2.72 2.72 96 1010.6
20260506023938 9 222 1.6 4.8 0.61 2.69 2.69 96 1010.7
20260506023435 9 115 0.0 1.6 0.61 2.64 2.64 96 1010.7
20260506022931 9 102 1.6 1.6 0.66 2.57 2.57 96 1010.6
20260506022429 9 107 0.0 0.0 0.61 2.54 2.54 96 1010.4
20260506021927 9 107 0.0 0.0 0.61 2.46 2.46 96 1010.2
20260506021424 9 107 0.0 0.0 0.61 2.44 2.44 96 1010.1
20260506020921 9 106 0.0 1.6 0.61 2.36 2.36 96 1010.1
20260506020419 9 110 0.0 0.0 0.61 2.34 2.34 96 1010.2
20260506015916 9 110 0.0 0.0 0.48 2.26 2.26 96 1010.1
20260506015414 9 111 0.0 0.0 0.30 2.21 2.21 96 1010.1
20260506014910 9 110 0.0 1.6 0.13 2.18 2.18 96 1010.1
20260506014407 9 110 0.0 0.0 0.18 2.16 2.16 96 1009.9
20260506013903 9 109 0.0 1.6 0.30 2.16 2.16 96 1009.7
20260506013402 9 114 0.0 0.0 0.13 2.13 2.13 96 1010.0
20260506012857 9 114 0.0 0.0 0.30 2.11 2.11 96 1010.1
20260506012354 9 122 0.0 0.0 0.13 2.08 2.08 96 1010.2
20260506011851 9 122 0.0 0.0 0.00 2.06 2.06 96 1010.0
20260506011348 10 153 0.0 0.0 0.00 2.06 2.06 96 1009.9
20260506010845 10 153 0.0 0.0 0.00 2.06 2.06 96 1010.1
20260506010344 10 119 0.0 0.0 0.18 2.06 2.06 96 1010.0
20260506005840 9 119 0.0 0.0 0.18 2.06 2.06 96 1010.0
20260506005337 9 118 0.0 0.0 0.00 2.03 2.03 96 1010.0
20260506004833 10 118 0.0 1.6 0.00 2.03 2.03 96 1009.9
20260506004331 10 131 0.0 1.6 0.13 2.03 2.03 96 1010.0
20260506003827 10 164 0.0 1.6 0.13 2.03 2.03 96 1010.0
20260506003323 10 84 1.6 1.6 0.18 2.01 2.01 95 1009.9
20260506002820 10 87 1.6 4.8 0.30 2.01 2.01 95 1009.7
20260506002316 10 105 0.0 1.6 0.30 1.96 1.96 95 1009.6
20260506001812 10 105 0.0 1.6 0.30 1.96 1.96 95 1009.6
20260506001309 10 118 0.0 0.0 0.36 1.91 1.91 95 1009.4
20260506000806 10 118 0.0 0.0 0.36 1.91 1.91 95 1009.4
20260506000304 10 105 0.0 1.6 0.48 1.91 1.91 95 1009.5
20260505235800 10 134 0.0 0.0 0.13 1.85 1.85 95 1009.3
20260505235258 10 108 1.6 1.6 0.00 1.83 1.83 95 1009.2
20260505234755 10 102 0.0 4.8 0.00 1.83 1.83 95 1009.3
20260505234253 10 134 0.0 0.0 0.00 1.83 1.83 95 1009.3
20260505233749 10 108 0.0 1.6 0.00 1.83 1.83 95 1009.3
20260505233247 10 58 4.8 8.0 0.00 1.83 1.83 95 1009.3
20260505232744 10 126 0.0 4.8 0.00 1.83 1.83 95 1009.4
20260505232241 10 85 3.2 6.4 0.00 1.83 1.83 95 1009.1
20260505231737 10 117 0.0 6.4 0.00 1.83 1.83 95 1009.3
20260505231237 10 140 0.0 1.6 0.18 1.83 1.83 95 1009.6
20260505230735 10 256 1.6 4.8 0.13 1.80 1.80 95 1009.7
20260505230231 10 80 1.6 1.6 0.13 1.80 1.80 95 1009.6
20260505225727 10 158 0.0 0.0 0.18 1.78 1.78 95 1009.9
20260505225224 10 152 0.0 1.6 0.30 1.78 1.78 95 1010.0
20260505224720 10 100 0.0 4.8 0.61 1.73 1.73 95 1009.8
20260505224218 10 103 1.6 4.8 0.79 1.73 1.73 95 1009.8
20260505223715 10 140 0.0 4.8 0.79 1.65 1.65 95 1009.8
20260505223211 10 108 1.6 4.8 0.48 1.60 1.60 95 1009.8
20260505222707 10 116 0.0 4.8 0.13 1.52 1.52 94 1009.5
20260505222203 10 123 0.0 4.8 0.13 1.52 1.52 94 1009.5
20260505221701 10 109 1.6 1.6 0.18 1.50 1.50 94 1009.6
20260505221157 10 173 0.0 4.8 0.61 1.50 1.50 94 1009.6
20260505220654 10 166 1.6 11.3 0.89 1.47 1.47 94 1009.4
20260505220152 10 127 0.0 1.6 0.61 1.40 1.40 94 1009.4
20260505215650 10 157 3.2 4.8 0.13 1.32 1.32 94 1009.4
20260505215147 10 120 0.0 1.6 0.36 1.30 1.30 94 1009.2
20260505214645 11 142 0.0 1.6 0.66 1.30 1.30 94 1009.2
20260505214142 11 72 1.6 4.8 0.43 1.24 1.24 94 1008.9
20260505213640 11 151 3.2 4.8 0.43 1.19 1.19 94 1009.4
20260505213136 11 142 0.0 1.6 0.61 1.14 1.14 94 1009.1
20260505212632 11 104 0.0 1.6 0.79 1.12 1.12 94 1008.9
20260505212130 11 108 0.0 4.8 0.30 1.02 1.02 94 1009.1
20260505211627 11 157 1.6 1.6 0.48 0.99 0.99 94 1008.8
20260505211124 11 149 1.6 4.8 0.61 0.94 0.94 93 1008.9
20260505210620 11 174 0.0 11.3 0.48 0.89 0.89 93 1009.3
20260505210117 12 340 3.2 4.8 0.30 0.84 0.84 93 1009.1
20260505205615 12 131 0.0 1.6 0.30 0.81 0.81 93 1009.2
20260505205113 12 85 1.6 11.3 0.61 0.79 0.79 92 1009.1
20260505204609 13 285 4.8 12.9 0.61 0.74 0.74 93 1009.1
20260505204107 13 322 4.8 8.0 0.48 0.69 0.69 93 1008.9
20260505203603 13 166 0.0 6.4 0.48 0.64 0.64 93 1008.8
20260505203100 13 305 4.8 11.3 0.61 0.61 0.61 93 1009.0
20260505202556 14 223 1.6 1.6 0.61 0.56 0.56 93 1008.9
20260505202052 14 315 6.4 8.0 0.48 0.51 0.51 92 1008.8
20260505201549 14 180 0.0 1.6 0.30 0.46 0.46 92 1008.7
20260505201047 14 196 0.0 4.8 0.30 0.43 0.43 92 1008.6
20260505200545 14 193 1.6 4.8 0.30 0.41 0.41 92 1009.0
20260505200042 14 181 0.0 1.6 0.48 0.41 0.41 91 1009.0
20260505195538 14 181 1.6 4.8 0.36 0.36 0.36 91 1008.9
20260505195035 14 228 1.6 4.8 0.30 0.33 0.33 91 1008.8
20260505194532 14 209 4.8 6.4 0.30 0.30 0.30 90 1008.8
20260505194027 14 190 0.0 4.8 0.48 0.28 0.28 90 1008.9
20260505193525 14 181 0.0 1.6 0.61 0.25 0.25 89 1009.0
20260505193022 14 207 3.2 4.8 0.61 0.20 0.20 88 1009.0
20260505192520 15 201 3.2 11.3 0.61 0.15 0.15 87 1009.1
20260505192018 15 232 4.8 6.4 0.30 0.08 0.08 86 1009.1
20260505191516 15 201 4.8 11.3 0.13 0.05 0.05 85 1009.0
20260505191014 15 242 6.4 11.3 0.18 0.03 0.03 84 1009.1
20260505190508 15 195 3.2 8.0 0.00 0.00 0.00 83 1009.0
20260505190004 15 216 3.2 11.3 0.00 0.00 0.00 82 1009.3
20260505185501 16 167 1.6 12.9 0.00 0.00 0.00 80 1009.0
20260505184957 16 250 4.8 12.9 0.00 0.00 0.00 77 1008.9
20260505184455 16 285 4.8 8.0 0.00 0.00 0.00 75 1009.1
20260505183951 16 200 3.2 16.1 0.00 0.00 0.00 74 1009.0
20260505183448 17 255 16.1 22.5 0.00 0.00 0.00 72 1008.9
20260505182944 17 210 4.8 17.7 0.00 0.00 0.00 71 1008.9
20260505182442 17 250 11.3 17.7 0.00 0.00 0.00 70 1008.9
20260505181938 17 181 3.2 22.5 0.00 0.00 0.00 70 1009.0
20260505181435 17 248 3.2 17.7 0.00 0.00 0.00 69 1009.0
20260505180932 17 280 8.0 16.1 0.00 0.00 0.00 68 1008.9
20260505180428 17 185 6.4 8.0 0.00 0.00 0.00 68 1008.8
20260505175925 18 217 4.8 16.1 0.00 0.00 0.00 68 1008.8
20260505175421 18 210 6.4 17.7 0.00 0.00 0.00 67 1008.7
20260505174918 18 193 9.7 12.9 0.00 0.00 0.00 67 1008.7
20260505174416 17 247 4.8 12.9 0.00 0.00 0.00 68 1008.7
20260505173912 17 191 11.3 19.3 0.00 0.00 0.00 67 1008.7
20260505173408 18 207 14.5 19.3 0.00 0.00 0.00 66 1008.6
20260505172905 18 173 9.7 24.1 0.00 0.00 0.00 67 1008.6
20260505172403 17 144 3.2 19.3 0.00 0.00 0.00 67 1008.7
20260505171902 17 306 8.0 17.7 0.00 0.00 0.00 67 1008.8
20260505171359 18 242 16.1 19.3 0.00 0.00 0.00 66 1008.7
20260505170856 18 245 3.2 22.5 0.00 0.00 0.00 66 1008.7
20260505170353 18 265 6.4 19.3 0.00 0.00 0.00 66 1008.5
20260505165848 18 312 9.7 25.7 0.00 0.00 0.00 66 1008.7
20260505165344 18 195 9.7 12.9 0.00 0.00 0.00 65 1008.8
20260505164840 18 280 12.9 19.3 0.00 0.00 0.00 65 1008.5
20260505164337 18 208 11.3 17.7 0.00 0.00 0.00 64 1008.6
20260505163835 18 220 3.2 16.1 0.00 0.00 0.00 64 1008.4
20260505163333 18 206 6.4 33.8 0.00 0.00 0.00 63 1008.5
20260505162831 18 233 6.4 19.3 0.00 0.00 0.00 63 1008.5
20260505162327 18 235 6.4 16.1 0.00 0.00 0.00 63 1008.4
20260505161824 18 226 16.1 22.5 0.00 0.00 0.00 62 1008.4
20260505161322 18 236 8.0 25.7 0.00 0.00 0.00 61 1008.7
20260505160819 18 260 11.3 17.7 0.00 0.00 0.00 62 1008.3
20260505160317 19 207 6.4 19.3 0.00 0.00 0.00 61 1008.5
20260505153256 20 251 6.4 22.5 0.00 0.00 0.00 59 1007.5
20260505152753 20 236 9.7 25.7 0.00 0.00 0.00 59 1008.0
20260505152249 20 230 9.7 12.9 0.00 0.00 0.00 59 1007.4
20260505151743 20 211 17.7 17.7 0.00 0.00 0.00 59 1007.2
20260505151241 20 271 17.7 24.1 0.00 0.00 0.00 58 1007.0
20260505150738 20 265 9.7 16.1 0.00 0.00 0.00 60 1006.7
20260505150236 19 226 14.5 17.7 0.00 0.00 0.00 60 1006.9
20260505140205 18 240 9.7 16.1 0.00 0.00 0.00 63 1007.1